Content
SEND FEEDBACK

Daily
Averages
Monthly
Summary
United States of America

ST. LOUIS - SAINT LOUIS UNIVERSITY, MISSOURI


Home > North America > United States > Missouri
Elevation: 580 feet     Latitude: 38 38N     Longitude: 090 14W

WEATHER
 
SELECT A DAY
Number of Records: 186,223;   Date Range: 1/1/95 - 8/12/14
 
SHARE

PRINT THIS DATA

[ ← Previous Day ]
WEATHER ALMANAC - JANUARY 9, 2013
[ Next Day → ]
[ °C ]   °F
Weather ElementAverageHighLow
Temperature45.1 °F57 °F (1:53 pm)33.8 °F (7:21 am)
Dewpoint36.4 °F44.1 °F (3:53 am)30.9 °F (8:53 pm)
Humidity74.2 %100 % (6:12 am)42 % (1:53 pm)
Barometer30.38 in30.48 in (6:53 pm)30.23 in (1:53 am)
Wind Speed3.2 mph9.2 mph (1:53 am)
Weather ElementAverage
Visibility9 mi
Wind DirectionESE (101.1 °)

Weather ElementTotal
Precipitation---
Heating Degree Days19.6 (Base 65)
Averaged from 27 records on January 9, 2013
WEATHER CONDITIONS BREAKOUT
WIND DIRECTION BREAKOUT
WEATHER BY HOUR - JANUARY 9, 2013
[ °C ]   °F
Local TimeTemperatureDewpointHumidityBarometerVisibilityWind DirectionWind SpeedGust SpeedPrecipitationEventsConditions
1:53 AM48.9 °F39.9 °F71 %30.23 in10.0 miSSW (200°)9.2 mph0.00 inOvercast
2:53 AM46.9 °F42.1 °F83 %30.25 in10.0 miSW (220°)5.8 mph0.00 inOvercast
3:53 AM48.0 °F44.1 °F86 %30.25 in10.0 miSSW (210°)4.6 mph0.00 inOvercast
4:53 AM46.9 °F44.1 °F90 %30.27 in10.0 miSW (220°)3.5 mphOvercast
5:53 AM44.1 °F43.0 °F96 %30.29 in9.0 miWSW (250°)3.5 mphClear
6:03 AM41.0 °F39.2 °F93 %30.29 in1.8 miCalmClear
6:12 AM39.2 °F39.2 °F100 %30.29 in10.0 miCalmClear
6:53 AM36.0 °F35.1 °F97 %30.33 in10.0 miNW (320°)3.5 mphFogShallow Fog
7:21 AM33.8 °F32.0 °F93 %30.35 in0.2 miCalmFogShallow Fog
7:49 AM34.0 °F33.1 °F96 %30.36 in1.2 miCalmFogShallow Fog
8:13 AM35.6 °F35.6 °F100 %30.36 in10.0 miCalmFogShallow Fog
8:53 AM42.1 °F39.9 °F92 %30.38 in10.0 miCalmClear
9:53 AM48.0 °F39.9 °F74 %30.40 in10.0 miSSW (210°)3.5 mphClear
10:53 AM51.1 °F39.9 °F66 %30.41 in10.0 miWest (260°)3.5 mphClear
11:53 AM54.0 °F37.9 °F55 %30.40 in10.0 miVariable3.5 mphClear
12:53 PM55.0 °F36.0 °F49 %30.38 in10.0 miNNW (330°)3.5 mphClear
1:53 PM57.0 °F34.0 °F42 %30.40 in10.0 miVariable3.5 mphClear
2:53 PM57.0 °F34.0 °F42 %30.40 in10.0 miNNE (30°)4.6 mphClear
3:53 PM54.0 °F35.1 °F49 %30.42 in10.0 miENE (70°)3.5 mphClear
4:53 PM48.0 °F36.0 °F63 %30.42 in10.0 miNE (40°)4.6 mphClear
5:53 PM46.9 °F34.0 °F61 %30.45 in10.0 miCalmClear
6:53 PM45.0 °F33.1 °F63 %30.48 in10.0 miENE (60°)3.5 mphClear
7:53 PM43.0 °F32.0 °F65 %30.47 in10.0 miNE (50°)5.8 mphClear
8:53 PM42.1 °F30.9 °F65 %30.48 in10.0 miENE (70°)3.5 mphClear
9:53 PM39.0 °F30.9 °F73 %30.48 in10.0 miNE (50°)3.5 mphClear
10:53 PM39.0 °F30.9 °F73 %30.47 in10.0 miENE (60°)4.6 mphClear
11:53 PM41.0 °F30.9 °F67 %30.47 in10.0 miEast (80°)4.6 mphClear
Hourly data recorded from KCPS, located miles away from St. Louis - Saint Louis University, Missouri







STORIES FROM OUR PARTNERS